Retour au catalogue

DMSP 5D-2 F13 DEB

ActifSSO
NORAD 40565·DEBRIS·🇺🇸 United States

Lancé Mar 24, 1995 depuis Vandenberg Space Force Base

Loading…

Prochains Passages (prochaines 24 heures)

TLE

FraisSource: Space-Track

Époque: Sep 11, 2026, 13:24 UTC

1 40565U 95015DY  26254.55836803  .00001152  00000-0  90003-3 0  9991
2 40565  98.8012   1.1794 0165447  24.3238 336.5618 13.87891197576072

Suivez DMSP 5D-2 F13 DEB en temps réel avec AllMySat

Download on the App Store